Regional Weather Roundup
Issued by NWS

Home | Current Version | Previous Version | Text Only | Print | Product List | Glossary On
Versions: 1 2 3 4 5 6 7 8 9 10 11 12 13 14 15 16 17 18 19 20 21 22 23 24 25 26 27 28 29 30 31 32 33 34 35 36 37 38 39 40 41 42 43 44 45 46 47 48 49 50
000
ASUS43 KBIS 220710
RWRND

NORTH DAKOTA REGIONAL WEATHER ROUNDUP
NATIONAL WEATHER SERVICE BISMARCK ND
200 AM CDT SAT JUL 22 2017

NOTE: "FAIR" INDICATES FEW OR NO CLOUDS BELOW 12,000 FEET WITH NO
SIGNIFICANT WEATHER AND/OR OBSTRUCTIONS TO VISIBILITY.


NDZ001>003-009>011-017-220800-
NORTHWEST NORTH DAKOTA

CITY           SKY/WX    TMP DP  RH WIND       PRES   REMARKS
WILLISTON      CLEAR     62  48  60 E5        29.93R
MINOT          CLEAR     66  55  67 W7        29.84F
MINOT AFB      CLEAR     59  54  85 W10       29.83S
$$

NDZ018>021-031>035-040>046-220800-
SOUTHWEST NORTH DAKOTA

CITY           SKY/WX    TMP DP  RH WIND       PRES   REMARKS
BISMARCK       PTCLDY    63  62  97 CALM      29.86S
DICKINSON      CLEAR     63  42  46 N5        29.93R
GARRISON         N/A     59  57  93 N7        29.86F
HETTINGER ARPT CLEAR     63  43  48 NW6       29.95R
$$

NDZ004>008-012>016-024-026-027-054-220800-
NORTHEAST NORTH DAKOTA

CITY           SKY/WX    TMP DP  RH WIND       PRES   REMARKS
GRAND FORKS    LGT RAIN  70  70 100 W6        29.78R FOG
GRND FRKS AFB  LGT RAIN  70  70 100 SW9       29.78R
DEVILS LAKE    CLOUDY    67  64  90 W5        29.83R
$$

NDZ022-023-025-028>030-036>039-047>053-220800-
SOUTHEAST NORTH DAKOTA

CITY           SKY/WX    TMP DP  RH WIND       PRES   REMARKS
FARGO          PTCLDY    73  67  81 S9        29.74F
JAMESTOWN      MOCLDY    70  65  84 N16       29.86R
$$





USA.gov is the U.S. government's official web portal to all federal, state and local government web resources and services.